Date,TemperatureHighF,TemperatureAvgF,TemperatureLowF,DewpointHighF,DewpointAvgF,DewpointLowF,HumidityHigh,HumidityAvg,HumidityLow,PressureMaxIn,PressureMinIn,WindSpeedMaxMPH,WindSpeedAvgMPH,GustSpeedMaxMPH,PrecipitationSumIn
2013-2-28,35.0,34.9,34.0,33.0,32.9,32.0,93,92,91,29.63,29.62,1,0,3,0.04
2013-3-1,41.0,36.3,32.0,33.0,29.7,23.0,93,77,61,29.82,29.62,8,2,16,0.01
2013-3-2,35.0,31.9,29.0,24.0,22.4,20.0,76,68,60,29.82,29.73,9,3,16,0.00
2013-3-3,35.0,30.0,26.0,22.0,19.3,18.0,75,64,54,29.80,29.71,8,3,19,0.00
2013-3-4,38.0,30.9,26.0,23.0,19.7,15.0,75,63,52,29.95,29.80,15,4,25,0.00
2013-3-5,49.0,34.4,28.0,31.0,24.3,21.0,81,67,50,30.01,29.85,5,1,15,0.00
2013-3-6,44.0,38.9,32.0,32.0,29.4,26.0,77,69,56,29.98,29.78,14,5,26,0.00
2013-3-7,43.0,38.3,32.0,28.0,25.7,22.0,66,60,51,30.11,29.98,9,3,16,0.00
2013-3-8,43.0,34.6,27.0,28.0,24.1,20.0,82,66,52,30.27,30.09,10,4,22,0.00
2013-3-9,62.0,38.1,19.0,34.0,25.8,16.0,92,66,31,30.31,30.20,5,1,10,0.00
2013-3-10,64.0,43.4,25.0,35.0,28.0,22.0,91,60,31,30.25,30.14,10,2,17,0.00
2013-3-11,61.0,50.2,40.0,49.0,38.1,29.0,80,64,42,30.19,29.89,28,2,31,0.00
2013-3-12,55.0,50.0,40.0,53.0,45.4,31.0,96,85,70,29.89,29.72,28,4,31,0.69
2013-3-13,45.0,37.7,28.0,34.0,28.3,18.0,91,70,45,29.91,29.78,10,2,24,0.01
2013-3-14,41.0,34.1,29.0,18.0,14.9,12.0,62,46,33,29.99,29.88,13,4,23,0.00
2013-3-15,45.0,34.6,19.0,33.0,23.5,14.0,83,64,53,29.99,29.68,11,3,16,0.00
2013-3-16,41.0,32.5,28.0,30.0,27.0,22.0,93,80,65,29.88,29.70,3,1,15,0.09
2013-3-17,39.0,32.2,25.0,28.0,23.6,19.0,94,72,52,30.23,29.88,5,1,12,0.13
2013-3-18,34.0,27.8,20.0,29.0,20.1,15.0,93,74,48,30.27,29.87,11,2,13,0.01
2013-3-19,49.0,38.7,31.0,40.0,30.6,19.0,96,75,33,29.87,29.65,15,3,30,0.36
2013-3-20,43.0,34.7,28.0,24.0,20.7,18.0,77,57,38,29.85,29.70,10,4,23,0.01
2013-3-21,36.0,29.2,19.0,23.0,16.9,11.0,84,62,37,29.79,29.63,11,2,19,0.00
2013-3-22,40.0,32.0,25.0,24.0,20.9,17.0,82,64,50,29.89,29.54,14,4,24,0.00
2013-3-23,45.0,36.0,27.0,25.0,22.2,19.0,72,58,42,29.94,29.86,10,3,21,0.00
2013-3-24,50.0,36.4,24.0,26.0,22.8,19.0,84,60,35,29.93,29.59,7,1,12,0.00
2013-3-25,40.0,36.2,33.0,34.0,30.3,24.0,95,80,60,29.63,29.48,5,1,13,0.16
2013-3-26,54.0,40.2,33.0,36.0,32.4,30.0,96,76,43,29.88,29.61,7,2,21,0.04
2013-3-27,51.0,39.9,29.0,34.0,29.9,26.0,91,69,45,30.00,29.88,9,2,20,0.00
2013-3-28,46.0,39.5,30.0,34.0,30.0,26.0,87,70,50,30.14,29.98,2,0,5,0.00
2013-3-29,51.0,42.9,32.0,35.0,31.0,27.0,81,63,46,30.16,30.07,0,0,0,0.01
2013-3-30,60.0,41.0,24.0,34.0,27.2,22.0,94,64,28,30.16,30.04,0,0,0,0.01
2013-3-31,53.0,40.2,27.0,45.0,33.9,-99.9,97,82,53,30.06,29.67,10,1,26,0.22
2013-4-1,52.0,44.0,28.0,46.0,33.4,16.0,99,70,31,29.91,29.65,13,3,23,0.12
2013-4-2,44.0,32.5,22.0,19.0,16.1,14.0,81,53,33,30.07,29.90,11,2,22,0.01
2013-4-3,44.0,32.7,21.0,21.0,16.2,13.0,81,53,30,30.32,30.06,15,3,22,0.00
2013-4-4,58.0,38.7,20.0,28.0,20.6,14.0,83,52,29,30.34,30.01,10,2,14,0.00
2013-4-5,60.0,45.2,29.0,31.0,24.4,20.0,79,47,25,30.03,29.78,9,2,23,0.00
2013-4-6,62.0,42.7,27.0,24.0,20.4,15.0,68,43,22,30.28,30.03,7,2,16,0.00
2013-4-7,67.0,53.8,40.0,45.0,34.7,19.0,68,49,39,30.18,29.89,11,4,25,0.00
2013-4-8,81.0,60.1,37.0,52.0,45.3,35.0,95,62,33,30.07,29.89,7,2,20,0.00
2013-4-9,85.0,69.1,52.0,54.0,50.4,47.0,84,55,31,30.02,29.84,10,3,19,0.00
2013-4-10,84.0,69.1,60.0,64.0,58.7,52.0,98,71,51,29.92,29.76,9,2,31,0.61
2013-4-11,60.0,55.4,50.0,60.0,51.7,46.0,99,88,80,29.91,29.81,8,4,18,0.50
2013-4-12,50.0,46.9,43.0,46.0,43.9,41.0,95,89,84,29.87,29.64,14,4,19,0.37
2013-4-13,57.0,47.2,38.0,45.0,38.5,36.0,96,74,50,29.92,29.75,9,2,19,0.01
2013-4-14,60.0,48.5,38.0,40.0,34.7,29.0,92,61,40,30.11,29.91,9,2,20,0.00
2013-4-15,71.0,54.6,44.0,51.0,41.4,33.0,72,62,49,30.24,30.11,10,2,18,0.00
2013-4-16,70.0,59.6,53.0,60.0,52.3,45.0,90,77,70,30.25,30.06,12,2,23,0.01
2013-4-17,76.0,60.2,47.0,59.0,45.5,38.0,98,63,31,30.26,30.11,6,2,13,0.21
2013-4-18,62.0,56.6,45.0,58.0,48.0,39.0,89,74,51,30.23,29.97,8,2,22,0.01
2013-4-19,75.0,64.7,50.0,66.0,59.7,50.0,100,84,71,29.98,29.54,20,6,33,0.71
2013-4-20,54.0,47.6,37.0,50.0,33.7,23.0,99,60,40,30.32,29.74,11,4,24,0.71
2013-4-21,60.0,41.6,26.0,32.0,26.7,22.0,86,59,33,30.55,30.32,7,1,15,0.00
2013-4-22,64.0,47.5,31.0,38.0,32.5,28.0,90,60,34,30.55,30.38,10,2,21,0.00
2013-4-23,71.0,51.1,37.0,47.0,39.0,31.0,83,65,42,30.41,30.08,8,2,13,0.00
2013-4-24,76.0,56.0,37.0,60.0,49.1,36.0,99,80,50,30.08,29.71,11,2,26,0.35
2013-4-25,66.0,51.0,41.0,44.0,35.8,33.0,77,58,33,30.22,29.95,8,2,26,0.35
2013-4-26,68.0,50.8,36.0,39.0,34.6,29.0,93,59,27,30.41,30.22,8,1,12,0.00
2013-4-27,80.0,54.5,32.0,44.0,37.6,30.0,94,60,27,30.40,30.22,4,1,11,0.00
2013-4-28,73.0,56.0,37.0,50.0,42.3,35.0,96,64,36,30.24,30.10,11,3,22,0.00
2013-4-29,59.0,55.8,52.0,55.0,48.9,38.0,91,79,55,30.14,30.04,10,1,16,0.04
2013-4-30,72.0,61.5,54.0,56.0,52.0,37.0,93,73,49,30.28,30.11,6,2,16,0.01
2013-5-1,81.0,60.6,37.0,43.0,38.3,34.0,89,49,23,30.41,30.28,9,2,13,0.00
2013-5-2,84.0,61.5,39.0,51.0,45.6,37.0,97,62,29,30.42,30.29,6,1,15,0.00
2013-5-3,80.0,61.6,43.0,49.0,43.2,35.0,95,56,26,30.37,30.25,9,2,17,0.00
2013-5-4,82.0,60.3,37.0,52.0,43.4,34.0,94,59,31,30.32,30.13,7,2,11,0.00
2013-5-5,83.0,61.5,39.0,48.0,41.4,37.0,96,55,21,30.22,30.10,7,1,16,0.00
2013-5-6,79.0,59.4,37.0,58.0,47.7,35.0,96,68,46,30.19,30.06,6,1,14,0.00
2013-5-7,83.0,65.4,50.0,60.0,54.7,48.0,98,72,43,30.11,29.99,9,2,17,0.00
2013-5-8,67.0,61.5,52.0,63.0,58.7,51.0,98,91,81,30.05,29.90,10,1,14,0.80
2013-5-9,73.0,60.7,50.0,61.0,56.2,50.0,100,87,63,29.96,29.88,9,2,14,0.42
2013-5-10,82.0,64.2,55.0,67.0,58.1,-99.9,100,86,54,30.00,29.84,5,1,15,0.14
2013-5-11,71.0,64.3,58.0,65.0,60.5,53.0,98,88,64,29.87,29.69,9,3,18,0.49
2013-5-12,60.0,53.5,43.0,53.0,39.6,-99.9,95,63,37,29.94,29.70,23,4,28,0.01
2013-5-13,56.0,46.1,37.0,34.0,31.3,29.0,78,58,39,30.11,29.93,9,2,17,0.00
2013-5-14,66.0,47.8,29.0,42.0,32.2,26.0,95,61,27,30.15,29.98,6,1,14,0.00
2013-5-15,78.0,60.7,48.0,62.0,51.0,41.0,90,71,55,30.01,29.63,7,2,15,0.00
2013-5-16,60.0,56.8,54.0,57.0,55.2,53.0,96,94,90,29.75,29.72,0,0,2,0.00
2013-5-19,68.0,64.2,61.0,61.0,59.5,54.0,91,85,60,30.20,30.11,4,1,13,0.00
2013-5-20,78.0,65.5,60.0,68.0,61.5,58.0,93,88,72,30.13,29.96,0,0,7,0.00
2013-5-21,93.0,77.0,59.0,76.0,68.2,59.0,100,77,49,29.96,29.81,13,3,17,0.00
2013-5-22,94.0,79.8,66.0,76.0,69.0,65.0,100,74,44,29.92,29.77,10,2,23,0.74
2013-5-23,80.0,70.0,62.0,69.0,66.0,61.0,100,88,68,29.87,29.72,8,2,17,0.77
2013-5-24,66.0,52.0,45.0,63.0,47.9,40.0,100,86,68,30.60,29.71,14,3,22,0.94
2013-5-25,62.0,51.5,42.0,41.0,38.2,36.0,86,63,41,30.07,30.01,15,4,23,0.01
2013-5-26,71.0,55.8,40.0,43.0,39.3,36.0,86,57,32,30.19,30.05,11,3,19,0.00
2013-5-27,74.0,56.8,35.0,49.0,42.8,33.0,97,65,33,30.25,30.11,10,2,14,0.00
2013-5-28,62.0,55.6,49.0,61.0,53.6,46.0,99,94,81,30.17,30.05,4,0,6,0.29
2013-5-29,88.0,71.8,57.0,72.0,65.2,57.0,100,82,54,30.07,29.99,8,2,16,0.10
2013-5-30,93.0,76.3,58.0,73.0,66.7,57.0,100,76,47,30.16,30.06,9,1,13,0.02
2013-5-31,95.0,78.1,62.0,77.0,67.5,61.0,100,74,40,30.13,29.98,8,1,14,0.00
2013-6-1,93.0,79.2,62.0,73.0,68.1,61.0,98,72,49,30.01,29.88,9,1,15,0.00
2013-6-2,87.0,79.1,70.0,72.0,67.9,-99.9,89,72,54,29.88,29.76,11,4,18,0.00
2013-6-3,82.0,73.1,56.0,69.0,63.2,50.0,93,73,54,29.94,29.81,6,1,11,0.00
2013-6-4,78.0,61.5,43.0,50.0,47.2,41.0,96,64,33,30.12,29.94,9,1,15,0.00
2013-6-5,86.0,62.5,44.0,56.0,49.8,42.0,97,68,35,30.20,30.04,4,1,10,0.00
2013-6-6,72.0,64.5,60.0,61.0,56.4,52.0,92,76,53,30.08,29.90,8,2,21,0.22
2013-6-7,66.0,64.2,62.0,65.0,61.9,60.0,97,92,84,29.90,29.68,8,2,16,0.21
2013-6-8,78.0,66.6,57.0,65.0,62.1,55.0,100,87,59,30.07,29.70,6,1,10,0.09
2013-6-9,88.0,70.3,53.0,65.0,60.1,52.0,100,74,41,30.19,30.08,5,1,10,0.00
2013-6-10,69.0,66.5,64.0,68.0,64.9,61.0,100,95,87,30.12,29.75,6,1,10,1.48
2013-6-11,77.0,69.7,63.0,70.0,66.0,62.0,100,89,71,29.79,29.70,9,3,18,1.57
2013-6-12,87.0,71.7,61.0,65.0,61.5,59.0,95,73,45,29.87,29.78,6,1,16,0.01
2013-6-13,80.0,67.1,58.0,71.0,63.4,56.0,98,89,74,29.82,29.43,9,2,19,1.07
2013-6-14,76.0,62.3,57.0,62.0,56.9,53.0,96,84,57,29.94,29.61,11,2,14,0.10
2013-6-15,82.0,65.2,52.0,63.0,57.8,52.0,100,80,47,30.03,29.94,9,2,13,0.00
2013-6-16,80.0,67.4,57.0,69.0,61.7,55.0,99,83,62,30.01,29.80,7,2,15,0.00
2013-6-17,87.0,70.6,61.0,72.0,65.1,60.0,100,84,48,29.93,29.54,5,1,12,6.37
2013-6-18,82.0,68.7,58.0,70.0,63.2,57.0,100,84,67,29.56,29.46,5,1,10,6.37
2013-6-19,80.0,65.4,55.0,60.0,56.3,52.0,91,74,46,29.73,29.56,4,1,13,0.00
2013-6-23,83.0,79.4,76.0,72.0,71.6,71.0,84,77,69,30.12,30.07,2,0,8,0.00
2013-6-24,87.0,73.8,66.0,77.0,71.0,65.0,100,92,71,33.15,30.09,55,10,55,0.01
2013-6-25,87.0,78.5,70.0,76.0,72.6,68.0,95,83,69,29.93,29.87,8,3,16,1.54
2013-6-26,85.0,75.0,65.0,73.0,69.7,65.0,100,85,67,29.91,29.88,5,1,8,3.08
2013-6-27,91.0,72.7,64.0,76.0,69.6,64.0,100,91,58,29.89,29.62,4,0,16,1.33
2013-6-28,86.0,73.6,67.0,74.0,69.8,67.0,100,89,64,29.63,29.54,4,1,9,1.33
2013-6-29,87.0,71.7,64.0,70.0,66.3,64.0,100,85,51,29.78,29.57,6,2,15,0.02
2013-6-30,88.0,72.4,64.0,77.0,69.9,64.0,100,92,67,29.95,29.77,6,0,16,0.56
2013-7-1,84.0,74.5,70.0,76.0,72.3,70.0,100,93,76,30.05,29.93,3,0,14,0.93
2013-7-2,86.0,77.1,70.0,77.0,73.3,70.0,100,89,72,30.19,30.04,9,2,14,0.12
2013-7-3,89.0,77.9,70.0,76.0,72.8,69.0,98,85,65,30.28,30.19,6,1,12,0.01
2013-7-4,93.0,79.6,69.0,79.0,73.9,69.0,100,84,60,30.29,30.21,6,1,14,0.00
2013-7-5,95.0,81.1,70.0,79.0,74.5,70.0,100,82,59,30.26,30.15,10,1,16,0.00
2013-7-6,94.0,81.2,71.0,78.0,74.5,70.0,100,82,57,30.24,30.11,6,2,11,0.00
2013-7-7,95.0,79.5,70.0,79.0,73.1,68.0,100,83,56,30.14,30.03,7,2,40,0.01
2013-7-8,89.0,73.2,68.0,75.0,68.2,-99.9,98,89,61,30.14,30.07,7,1,11,0.01
2013-7-9,88.0,74.5,66.0,77.0,70.7,66.0,100,88,69,30.15,30.05,6,1,22,0.00
2013-7-10,83.0,74.4,69.0,75.0,70.8,68.0,98,90,76,30.07,29.90,5,0,20,0.03
2013-7-11,88.0,76.2,66.0,72.0,67.4,62.0,99,77,50,30.02,29.90,5,1,11,0.03
2013-7-12,78.0,68.8,63.0,71.0,65.8,61.0,98,91,72,30.16,30.02,3,0,9,0.11
2013-7-13,90.0,74.7,67.0,77.0,71.1,67.0,100,90,63,30.34,30.14,4,0,11,0.20
2013-7-14,94.0,80.4,69.0,79.0,73.7,69.0,100,83,57,30.40,30.32,7,1,14,0.01
2013-7-15,99.0,79.8,68.0,79.0,73.7,68.0,100,84,51,30.37,30.24,5,1,11,0.00
2013-7-16,96.0,82.3,70.0,77.0,72.1,68.0,100,76,41,30.35,30.25,8,1,15,0.00
2013-7-17,99.0,78.1,66.0,79.0,72.2,65.0,100,84,49,30.32,30.16,3,0,6,0.00
2013-7-18,101.0,85.8,73.0,80.0,75.6,69.0,100,75,47,30.19,30.07,7,1,13,0.00
2013-7-19,97.0,83.6,70.0,81.0,74.9,69.0,99,78,56,30.09,29.88,10,2,18,0.00
2013-7-20,92.0,80.8,74.0,78.0,73.3,-99.9,93,80,62,29.93,29.85,12,2,19,0.04
2013-7-21,94.0,75.8,68.0,73.0,69.7,67.0,100,83,48,30.03,29.93,3,0,7,0.04
2013-7-22,95.0,75.8,68.0,78.0,71.9,67.0,100,89,54,30.02,29.85,4,0,14,0.29
2013-7-23,89.0,76.9,71.0,75.0,72.4,69.0,100,87,61,29.85,29.68,5,1,12,0.22
2013-7-24,79.0,70.7,60.0,69.0,61.6,52.0,97,75,53,30.04,29.74,8,2,14,0.00
2013-7-25,80.0,63.5,49.0,63.0,56.6,47.0,99,80,57,30.11,30.04,3,0,8,0.00
2013-7-26,88.0,73.3,57.0,65.0,60.4,56.0,100,68,37,30.15,30.06,7,1,11,0.00
2013-7-27,87.0,70.6,55.0,73.0,65.4,54.0,100,85,62,30.10,29.96,7,1,16,0.86
2013-7-28,87.0,72.5,67.0,74.0,69.0,65.0,100,90,62,30.02,29.96,8,0,14,1.09
2013-7-29,82.0,67.0,57.0,67.0,60.6,57.0,100,83,45,30.19,30.02,6,0,13,0.01
2013-7-30,81.0,65.7,53.0,63.0,58.6,53.0,100,81,52,30.27,30.19,6,1,11,0.01
2013-7-31,85.0,68.5,57.0,68.0,62.6,56.0,100,84,51,30.23,30.06,4,0,10,0.00
2013-8-1,81.0,73.3,68.0,72.0,68.9,65.0,98,86,73,30.07,29.87,6,1,11,0.04
2013-8-2,84.0,71.0,60.0,69.0,63.6,59.0,100,80,54,30.00,29.91,9,2,15,0.01
2013-8-3,82.0,69.0,63.0,70.0,65.1,59.0,100,88,64,29.99,29.93,7,1,11,0.28
2013-8-4,79.0,65.1,55.0,64.0,59.3,54.0,100,83,52,30.08,29.98,8,2,14,0.01
2013-8-5,80.0,59.4,51.0,61.0,55.4,50.0,100,88,47,30.16,30.08,6,0,11,0.01
2013-8-6,77.0,61.5,53.0,64.0,57.6,52.0,100,88,65,30.15,30.09,4,0,8,0.00
2013-8-7,75.0,70.4,64.0,71.0,67.0,61.0,94,89,83,30.15,30.06,3,0,10,0.01
2013-8-8,89.0,72.8,62.0,77.0,69.5,62.0,100,90,68,30.10,30.02,4,0,13,0.02
2013-8-9,86.0,76.8,71.0,78.0,74.2,70.0,100,92,75,30.04,29.90,8,1,11,0.63
2013-8-10,86.0,72.7,62.0,71.0,66.3,60.0,100,83,50,30.14,29.98,9,1,15,0.04
2013-8-11,85.0,70.2,57.0,69.0,63.0,57.0,100,80,52,30.20,30.09,3,0,9,0.01
2013-8-12,88.0,76.3,63.0,70.0,66.2,62.0,100,74,51,30.11,30.00,8,1,11,0.00
2013-8-13,86.0,70.2,65.0,75.0,65.0,-99.9,100,88,59,30.00,29.78,5,0,13,0.37
2013-8-21,92.0,75.7,57.0,71.0,66.1,57.0,100,76,45,30.27,30.12,5,1,12,0.00
2013-8-22,89.0,76.4,66.0,74.0,70.0,66.0,100,82,59,30.14,29.95,7,1,17,0.26
2013-8-23,80.0,68.9,59.0,71.0,63.9,56.0,100,86,50,30.21,30.02,4,0,11,0.01
2013-8-24,70.0,58.0,52.0,62.0,55.6,51.0,100,92,75,30.40,30.21,4,0,7,0.01
2013-8-25,86.0,67.9,52.0,66.0,57.1,-99.9,100,75,44,30.47,30.28,7,1,13,0.01
2013-8-26,87.0,72.1,62.0,71.0,65.6,60.0,97,81,58,30.29,30.01,9,2,15,0.09
2013-8-27,90.0,73.5,65.0,75.0,70.1,65.0,100,91,61,30.02,29.98,7,1,10,0.09
2013-9-4,79.0,62.7,54.0,63.0,58.0,54.0,100,86,54,30.11,30.01,6,1,12,0.00
2013-9-5,77.0,66.5,56.0,63.0,55.8,49.0,97,72,41,30.25,30.04,10,2,16,0.00
2013-9-6,61.0,54.3,49.0,51.0,48.5,46.0,96,81,70,30.35,30.19,3,0,7,0.00
2013-9-7,82.0,62.9,44.0,62.0,52.4,44.0,100,73,38,30.20,29.96,7,1,12,0.01
2013-9-8,76.0,66.7,56.0,67.0,58.6,-99.9,97,79,49,30.15,29.93,10,2,15,0.01
2013-9-9,76.0,68.1,48.0,62.0,57.3,48.0,99,70,54,30.27,30.16,6,1,13,0.00
2013-9-10,94.0,78.2,65.0,78.0,71.0,62.0,98,81,59,30.21,30.10,10,2,16,0.01
2013-9-24,75.0,51.4,39.0,52.0,44.8,38.0,100,82,39,30.16,29.99,5,1,13,0.00
2013-9-25,63.0,49.9,40.0,54.0,47.3,39.0,100,91,69,30.20,29.95,1,0,5,0.00
2013-9-26,74.0,54.7,45.0,59.0,51.0,44.0,100,89,57,30.15,30.01,2,0,7,0.00
2013-9-27,78.0,59.0,51.0,57.0,53.5,49.0,94,83,47,30.30,30.15,4,0,7,0.00
2013-9-28,76.0,59.1,49.0,59.0,52.9,47.0,99,83,47,30.38,30.28,4,0,8,0.00
2013-9-29,74.0,58.1,44.0,60.0,50.0,-99.9,100,79,52,30.29,30.12,6,1,8,0.00
2013-9-30,73.0,55.8,45.0,61.0,51.9,44.0,100,88,60,30.14,30.03,4,0,8,0.00
2013-10-13,72.0,59.5,51.0,55.0,50.4,-99.9,93,75,54,30.39,30.28,5,1,11,0.00
2013-10-14,72.0,56.7,48.0,56.0,51.8,47.0,100,85,58,30.40,30.28,4,0,8,0.00
2013-10-15,74.0,55.4,48.0,57.0,50.7,47.0,100,86,45,30.31,30.14,3,0,7,0.00
2013-10-16,66.0,59.3,52.0,59.0,53.1,45.0,93,80,70,30.16,29.95,3,0,8,0.00
2013-10-17,75.0,64.6,59.0,63.0,59.6,57.0,98,85,59,29.96,29.71,10,2,25,0.29
2013-10-18,64.0,54.8,41.0,58.0,46.6,39.0,94,75,49,30.04,29.81,10,2,19,0.29
2013-10-19,64.0,46.5,37.0,53.0,42.7,36.0,100,89,59,30.04,29.79,6,1,18,0.01
2013-10-20,61.0,50.6,38.0,42.0,40.0,36.0,92,69,47,30.11,30.03,5,1,16,0.07
2013-10-21,38.0,36.1,35.0,36.0,34.8,34.0,96,95,92,30.14,30.10,0,0,0,0.00
2013-10-22,61.0,51.5,38.0,49.0,41.8,32.0,91,72,43,29.97,29.83,7,1,19,0.00
2013-10-23,53.0,44.1,36.0,39.0,36.1,32.0,96,74,54,29.90,29.72,4,1,9,0.00
2013-10-24,50.0,41.1,32.0,35.0,32.2,30.0,96,73,52,30.08,29.88,8,2,17,0.00
2013-11-7,60.0,51.3,39.0,55.0,46.7,31.0,99,85,71,30.04,29.89,9,2,20,0.01
2013-11-8,46.0,39.1,33.0,35.0,31.3,28.0,91,74,60,30.28,30.03,8,1,19,0.01
2013-11-9,50.0,42.0,31.0,33.0,29.3,-99.9,84,63,50,30.32,29.98,14,2,14,0.00
2013-11-10,54.0,45.4,33.0,40.0,33.6,29.0,84,64,52,30.19,29.92,9,3,29,0.00
2013-11-11,50.0,45.9,38.0,36.0,33.2,29.0,80,61,53,30.24,30.00,8,3,14,0.00
2013-11-12,48.0,34.0,25.0,37.0,21.1,14.0,79,60,42,30.37,30.01,10,3,22,0.01
2013-11-13,41.0,32.8,22.0,24.0,20.5,16.0,77,61,45,30.45,30.31,10,2,15,0.00
2013-12-5,57.0,51.4,47.0,54.0,49.6,45.0,100,94,87,29.70,27.35,5,1,11,0.25
2013-12-6,51.0,40.9,32.0,51.0,38.9,30.0,100,93,86,29.82,29.51,4,1,8,0.82
2013-12-7,39.0,31.2,25.0,32.0,26.0,-99.9,97,85,64,30.22,29.79,5,1,10,0.11
2013-12-8,28.0,25.4,20.0,24.0,20.2,14.0,91,81,68,30.18,29.94,5,1,10,0.01
2013-12-9,34.0,31.5,26.0,34.0,30.4,24.0,98,95,86,29.94,29.59,4,1,12,0.10
2013-12-10,34.0,31.3,25.0,30.0,24.6,11.0,89,77,53,29.73,29.54,6,2,18,0.02
2013-12-11,33.0,26.8,21.0,18.0,14.3,12.0,72,59,44,29.92,29.73,13,4,20,0.01
2013-12-21,45.0,35.6,44.0,40.0,11.6,-99.9,83,66,81,29.95,29.84,0,0,2,0.12
2013-12-22,66.0,62.4,58.0,63.0,61.2,58.0,100,96,86,29.88,29.67,11,3,27,0.18
2013-12-27,27.0,26.5,26.0,23.0,22.5,22.0,85,85,85,30.24,30.21,1,0,2,3.01